�������l�o���
Date,Time,MP-1(��Sv/h),MP-2(��Sv/h),MP-3(��Sv/h),MP-4(��Sv/h),MP-5(��Sv/h),MP-6(��Sv/h),MP-7(��Sv/h),MP-8(��Sv/h),����,����(m/s),���J
2022/04/11,00:00,0.585,0.869,0.555,1.057,0.754,0.353,0.605,0.571,��쐼,5.9,��
2022/04/11,00:10,0.586,0.869,0.556,1.056,0.752,0.351,0.606,0.572,��쐼,6.4,��
2022/04/11,00:20,0.585,0.866,0.555,1.056,0.754,0.353,0.608,0.571,��쐼,4.9,��
2022/04/11,00:30,0.585,0.868,0.558,1.058,0.753,0.352,0.607,0.571,��쐼,5.3,��
2022/04/11,00:40,0.586,0.868,0.555,1.057,0.753,0.353,0.607,0.572,��쐼,5.0,��
2022/04/11,00:50,0.586,0.865,0.556,1.057,0.755,0.352,0.605,0.572,��쐼,4.7,��
2022/04/11,01:00,0.585,0.868,0.557,1.057,0.752,0.351,0.605,0.570,��쐼,4.0,��
2022/04/11,01:10,0.585,0.867,0.555,1.058,0.752,0.352,0.605,0.570,��쐼,4.2,��
2022/04/11,01:20,0.585,0.869,0.555,1.056,0.754,0.351,0.606,0.572,��쐼,4.7,��
2022/04/11,01:30,0.587,0.866,0.555,1.057,0.753,0.352,0.606,0.571,��쐼,5.4,��
2022/04/11,01:40,0.587,0.867,0.554,1.058,0.754,0.352,0.605,0.571,��쐼,5.6,��
2022/04/11,01:50,0.586,0.866,0.553,1.055,0.754,0.352,0.607,0.571,��쐼,4.7,��
2022/04/11,02:00,0.584,0.868,0.555,1.057,0.752,0.352,0.606,0.570,�쐼,4.0,��
2022/04/11,02:10,0.584,0.865,0.554,1.055,0.753,0.352,0.605,0.572,�쐼,5.0,��
2022/04/11,02:20,0.586,0.868,0.554,1.058,0.754,0.352,0.606,0.570,�쐼,5.2,��
2022/04/11,02:30,0.585,0.866,0.555,1.056,0.752,0.354,0.607,0.571,��쐼,4.4,��
2022/04/11,02:40,0.585,0.869,0.555,1.056,0.751,0.352,0.607,0.572,��쐼,5.3,��
2022/04/11,02:50,0.585,0.868,0.555,1.055,0.752,0.350,0.605,0.570,��쐼,4.6,��
2022/04/11,03:00,0.585,0.865,0.556,1.055,0.752,0.353,0.607,0.571,��쐼,5.1,��
2022/04/11,03:10,0.585,0.868,0.553,1.057,0.755,0.352,0.608,0.569,��쐼,5.7,��
2022/04/11,03:20,0.584,0.865,0.554,1.055,0.752,0.352,0.606,0.571,��쐼,5.1,��
2022/04/11,03:30,0.584,0.867,0.555,1.056,0.752,0.352,0.607,0.571,��쐼,3.9,��
2022/04/11,03:40,0.586,0.866,0.553,1.056,0.754,0.352,0.605,0.569,��,3.8,��
2022/04/11,03:50,0.585,0.867,0.554,1.056,0.753,0.351,0.606,0.571,��쐼,4.9,��
2022/04/11,04:00,0.586,0.868,0.555,1.056,0.753,0.352,0.605,0.571,��쐼,4.9,��
2022/04/11,04:10,0.583,0.868,0.555,1.055,0.753,0.352,0.604,0.570,��쐼,4.1,��
2022/04/11,04:20,0.584,0.868,0.554,1.055,0.752,0.351,0.604,0.571,�쐼,2.6,��
2022/04/11,04:30,0.583,0.867,0.555,1.057,0.752,0.352,0.606,0.570,�쐼,2.0,��
2022/04/11,04:40,0.584,0.868,0.554,1.055,0.752,0.351,0.605,0.571,�쐼,1.7,��
2022/04/11,04:50,0.585,0.867,0.555,1.056,0.752,0.352,0.605,0.570,�쐼,1.9,��
2022/04/11,05:00,0.584,0.867,0.554,1.057,0.753,0.351,0.605,0.572,��쐼,1.7,��
2022/04/11,05:10,0.583,0.865,0.552,1.055,0.753,0.353,0.605,0.571,��쐼,1.7,��
2022/04/11,05:20,0.585,0.866,0.553,1.057,0.752,0.351,0.604,0.571,�쐼,0.9,��
2022/04/11,05:30,0.585,0.865,0.553,1.057,0.753,0.353,0.604,0.570,�쐼,0.9,��
2022/04/11,05:40,0.584,0.868,0.553,1.055,0.752,0.352,0.606,0.571,-,CALM,��
2022/04/11,05:50,0.585,0.866,0.554,1.056,0.751,0.353,0.606,0.571,-,CALM,��
2022/04/11,06:00,0.585,0.867,0.555,1.058,0.752,0.351,0.605,0.571,-,CALM,��
2022/04/11,06:10,0.583,0.865,0.554,1.057,0.751,0.351,0.605,0.570,-,CALM,��
2022/04/11,06:20,0.585,0.867,0.554,1.055,0.755,0.351,0.605,0.570,���k��,0.6,��
2022/04/11,06:30,0.585,0.868,0.554,1.056,0.752,0.351,0.605,0.571,��,0.6,��
2022/04/11,06:40,0.586,0.870,0.556,1.055,0.751,0.350,0.607,0.572,-,CALM,��
2022/04/11,06:50,0.586,0.868,0.555,1.058,0.753,0.352,0.605,0.571,��,0.9,��
2022/04/11,07:00,0.584,0.869,0.554,1.056,0.753,0.352,0.607,0.572,�쐼,0.8,��
2022/04/11,07:10,0.585,0.869,0.556,1.057,0.754,0.351,0.607,0.571,���k��,1.7,��
2022/04/11,07:20,0.586,0.870,0.557,1.059,0.752,0.352,0.607,0.572,�k��,1.9,��
2022/04/11,07:30,0.586,0.869,0.555,1.056,0.753,0.350,0.606,0.571,�k��,1.2,��
2022/04/11,07:40,0.587,0.868,0.556,1.058,0.754,0.351,0.607,0.572,�k��,1.1,��
2022/04/11,07:50,0.586,0.868,0.556,1.058,0.752,0.350,0.607,0.573,-,CALM,��
2022/04/11,08:00,0.585,0.866,0.555,1.058,0.751,0.350,0.607,0.571,���쓌,1.2,��
2022/04/11,08:10,0.586,0.865,0.557,1.060,0.753,0.350,0.608,0.573,�쓌,1.4,��
2022/04/11,08:20,0.586,0.865,0.555,1.059,0.752,0.350,0.605,0.571,�쓌,0.8,��
2022/04/11,08:30,0.585,0.863,0.555,1.059,0.750,0.351,0.605,0.570,��쓌,0.9,��
2022/04/11,08:40,0.585,0.864,0.554,1.059,0.752,0.352,0.605,0.570,��쓌,1.7,��
2022/04/11,08:50,0.584,0.863,0.556,1.059,0.752,0.352,0.605,0.569,�쓌,1.2,��
2022/04/11,09:00,0.586,0.863,0.553,1.059,0.752,0.350,0.605,0.568,��,0.9,��
2022/04/11,09:10,0.583,0.865,0.556,1.060,0.753,0.352,0.606,0.569,���k��,1.5,��
2022/04/11,09:20,0.586,0.862,0.557,1.061,0.754,0.352,0.605,0.570,���쓌,1.2,��
2022/04/11,09:30,0.585,0.864,0.554,1.058,0.753,0.349,0.604,0.569,�쓌,4.5,��
2022/04/11,09:40,0.584,0.865,0.555,1.059,0.753,0.351,0.607,0.567,��쓌,4.3,��
2022/04/11,09:50,0.585,0.865,0.555,1.058,0.752,0.349,0.604,0.570,��쓌,5.1,��
2022/04/11,10:00,0.583,0.864,0.553,1.059,0.751,0.350,0.604,0.567,��,3.5,��
2022/04/11,10:10,0.584,0.865,0.553,1.059,0.751,0.349,0.606,0.569,��,4.1,��
2022/04/11,10:20,0.584,0.864,0.552,1.062,0.752,0.349,0.606,0.569,��,4.4,��
2022/04/11,10:30,0.582,0.865,0.554,1.058,0.755,0.350,0.605,0.570,��,4.2,��
2022/04/11,10:40,0.585,0.864,0.553,1.058,0.752,0.351,0.606,0.569,��,5.2,��
2022/04/11,10:50,0.584,0.866,0.552,1.060,0.754,0.349,0.606,0.569,��,5.0,��
2022/04/11,11:00,0.585,0.867,0.554,1.061,0.754,0.351,0.606,0.570,��,5.9,��
2022/04/11,11:10,0.585,0.865,0.554,1.058,0.753,0.352,0.607,0.570,��,6.5,��
2022/04/11,11:20,0.585,0.866,0.555,1.061,0.752,0.350,0.606,0.570,��,7.7,��
2022/04/11,11:30,0.585,0.867,0.553,1.059,0.756,0.350,0.607,0.571,��,9.2,��
2022/04/11,11:40,0.586,0.867,0.555,1.061,0.753,0.352,0.605,0.570,��,9.3,��
2022/04/11,11:50,0.585,0.867,0.555,1.060,0.755,0.352,0.606,0.571,��,8.8,��
2022/04/11,12:00,0.585,0.867,0.555,1.061,0.755,0.351,0.606,0.570,��,9.1,��
2022/04/11,12:10,0.585,0.868,0.556,1.061,0.754,0.350,0.607,0.570,��,8.8,��
2022/04/11,12:20,0.586,0.868,0.554,1.059,0.754,0.353,0.607,0.570,��,7.8,�L
2022/04/11,12:30,0.584,0.869,0.555,1.061,0.754,0.352,0.606,0.570,��,8.1,��
2022/04/11,12:40,0.585,0.869,0.557,1.061,0.755,0.352,0.608,0.571,��,8.9,��
2022/04/11,12:50,0.584,0.867,0.555,1.060,0.756,0.351,0.607,0.570,��,7.8,��
2022/04/11,13:00,0.587,0.868,0.556,1.062,0.754,0.352,0.607,0.569,��,8.5,��
2022/04/11,13:10,0.586,0.867,0.555,1.062,0.755,0.351,0.608,0.570,��,8.4,��
2022/04/11,13:20,0.586,0.864,0.557,1.061,0.755,0.351,0.607,0.570,��,9.1,��
2022/04/11,13:30,0.586,0.867,0.555,1.060,0.754,0.352,0.606,0.571,��,7.8,��
2022/04/11,13:40,0.585,0.866,0.558,1.062,0.755,0.351,0.607,0.570,��,8.5,��
2022/04/11,13:50,0.583,0.867,0.557,1.061,0.755,0.350,0.608,0.571,��,8.7,��
2022/04/11,14:00,0.584,0.867,0.556,1.061,0.756,0.351,0.606,0.570,��,10.9,��
2022/04/11,14:10,0.585,0.865,0.554,1.061,0.754,0.351,0.608,0.570,��쓌,12.2,��
2022/04/11,14:20,0.585,0.866,0.555,1.061,0.756,0.352,0.607,0.571,��,12.5,��
2022/04/11,14:30,0.586,0.864,0.555,1.060,0.755,0.351,0.607,0.571,��,10.6,��
2022/04/11,14:40,0.585,0.863,0.556,1.060,0.755,0.351,0.607,0.571,��,11.3,��
2022/04/11,14:50,0.585,0.866,0.556,1.058,0.754,0.351,0.608,0.571,��,10.9,��
2022/04/11,15:00,0.585,0.868,0.554,1.062,0.756,0.350,0.605,0.570,��,10.5,��
2022/04/11,15:10,0.584,0.868,0.555,1.063,0.755,0.351,0.608,0.569,��,11.6,��
2022/04/11,15:20,0.586,0.867,0.555,1.061,0.756,0.351,0.607,0.571,��,11.0,��
2022/04/11,15:30,0.586,0.867,0.555,1.060,0.756,0.350,0.607,0.570,��,10.8,��
2022/04/11,15:40,0.586,0.867,0.557,1.062,0.755,0.351,0.608,0.570,��,10.5,��
2022/04/11,15:50,0.584,0.870,0.556,1.062,0.754,0.352,0.608,0.571,��쓌,9.6,��
2022/04/11,16:00,0.585,0.870,0.554,1.060,0.755,0.350,0.606,0.570,��,8.6,��
2022/04/11,16:10,0.586,0.867,0.556,1.063,0.755,0.352,0.609,0.570,��,8.5,��
2022/04/11,16:20,0.585,0.868,0.556,1.061,0.754,0.350,0.607,0.571,��,7.7,��
2022/04/11,16:30,0.584,0.868,0.556,1.061,0.757,0.351,0.607,0.570,��,9.1,��
2022/04/11,16:40,0.583,0.869,0.554,1.059,0.756,0.351,0.607,0.571,��쓌,9.7,��
2022/04/11,16:50,0.588,0.867,0.554,1.059,0.755,0.349,0.608,0.571,��,9.3,��
2022/04/11,17:00,0.585,0.865,0.554,1.061,0.755,0.351,0.608,0.571,��,9.1,��
2022/04/11,17:10,0.584,0.867,0.555,1.062,0.755,0.351,0.607,0.572,��,11.0,��
2022/04/11,17:20,0.585,0.866,0.555,1.061,0.754,0.350,0.606,0.572,��,11.1,��
2022/04/11,17:30,0.583,0.868,0.555,1.061,0.757,0.352,0.607,0.571,��,11.0,��
2022/04/11,17:40,0.583,0.866,0.554,1.062,0.756,0.350,0.606,0.571,��,11.4,��
2022/04/11,17:50,0.584,0.866,0.554,1.061,0.753,0.353,0.606,0.572,��,11.0,��
2022/04/11,18:00,0.585,0.868,0.552,1.063,0.754,0.352,0.607,0.573,��,10.7,��
2022/04/11,18:10,0.585,0.868,0.554,1.063,0.755,0.351,0.607,0.572,��,9.2,��
2022/04/11,18:20,0.584,0.869,0.555,1.064,0.755,0.351,0.607,0.573,��,9.6,��
2022/04/11,18:30,0.583,0.868,0.555,1.062,0.755,0.352,0.608,0.573,��,10.0,��
2022/04/11,18:40,0.586,0.868,0.557,1.065,0.757,0.352,0.609,0.573,��,10.0,��
2022/04/11,18:50,0.587,0.868,0.556,1.063,0.754,0.351,0.609,0.572,��,10.0,��
2022/04/11,19:00,0.587,0.869,0.557,1.060,0.753,0.351,0.607,0.573,��,9.9,��
2022/04/11,19:10,0.586,0.870,0.558,1.061,0.755,0.351,0.607,0.573,��,9.7,��
2022/04/11,19:20,0.586,0.869,0.557,1.060,0.755,0.350,0.608,0.574,��,9.8,��
2022/04/11,19:30,0.587,0.871,0.558,1.059,0.756,0.352,0.608,0.573,��,9.4,��
2022/04/11,19:40,0.587,0.871,0.558,1.061,0.756,0.351,0.610,0.571,��,8.2,��
2022/04/11,19:50,0.588,0.871,0.556,1.062,0.756,0.351,0.610,0.571,��,8.2,��
2022/04/11,20:00,0.587,0.871,0.557,1.061,0.755,0.351,0.608,0.573,��,7.4,��
2022/04/11,20:10,0.587,0.871,0.558,1.060,0.757,0.352,0.609,0.572,��,7.3,��
2022/04/11,20:20,0.585,0.872,0.556,1.063,0.758,0.352,0.609,0.572,��,5.9,��
2022/04/11,20:30,0.586,0.874,0.557,1.061,0.756,0.353,0.608,0.572,��,6.8,��
2022/04/11,20:40,0.587,0.871,0.556,1.062,0.757,0.352,0.609,0.574,��,6.6,��
2022/04/11,20:50,0.586,0.871,0.557,1.058,0.757,0.351,0.610,0.572,��,5.7,��
2022/04/11,21:00,0.587,0.870,0.556,1.062,0.759,0.351,0.609,0.572,��,4.9,��
2022/04/11,21:10,0.586,0.870,0.556,1.064,0.759,0.353,0.609,0.571,��,6.5,��
2022/04/11,21:20,0.588,0.873,0.558,1.061,0.757,0.352,0.609,0.572,��,6.5,��
2022/04/11,21:30,0.587,0.870,0.558,1.062,0.757,0.354,0.609,0.573,��,5.4,��
2022/04/11,21:40,0.587,0.871,0.557,1.061,0.758,0.352,0.610,0.573,��,7.2,��
2022/04/11,21:50,0.587,0.870,0.557,1.062,0.757,0.352,0.610,0.573,��,6.6,��
2022/04/11,22:00,0.587,0.872,0.555,1.063,0.757,0.352,0.609,0.574,��,7.2,��
2022/04/11,22:10,0.586,0.872,0.557,1.063,0.757,0.352,0.609,0.570,��쐼,6.9,��
2022/04/11,22:20,0.587,0.872,0.556,1.060,0.758,0.352,0.608,0.573,��쐼,5.9,��
2022/04/11,22:30,0.586,0.871,0.557,1.062,0.758,0.352,0.608,0.572,��쐼,6.2,��
2022/04/11,22:40,0.587,0.872,0.557,1.063,0.756,0.353,0.610,0.572,��쐼,6.2,��
2022/04/11,22:50,0.586,0.875,0.557,1.062,0.758,0.352,0.609,0.572,��쐼,5.7,��
2022/04/11,23:00,0.586,0.871,0.557,1.060,0.757,0.353,0.608,0.572,��쐼,5.4,��
2022/04/11,23:10,0.587,0.872,0.557,1.062,0.758,0.353,0.610,0.572,��쐼,4.7,��
2022/04/11,23:20,0.588,0.871,0.557,1.063,0.755,0.352,0.608,0.571,��,5.4,��
2022/04/11,23:30,0.587,0.872,0.557,1.062,0.758,0.353,0.610,0.571,��쐼,6.3,��
2022/04/11,23:40,0.588,0.872,0.556,1.063,0.757,0.352,0.609,0.572,��쐼,5.9,��
2022/04/11,23:50,0.587,0.872,0.556,1.063,0.757,0.353,0.607,0.572,��쐼,6.0,��
